When you browse on this site, cookies collect data to enhance your experience and personalize the content and advertising you see.
Visit our Privacy Policy to learn more. By continuing to use the site, you agree to this use of cookies and data.
  • en Suisse
  • Liste des pays
  • À 7 jours
  • Température de l'eau
  • Carte satellitaire
  • Carte météo
  • Widgets météo
  • user-avatar
    Se connecter

    Météo par heure à Novomullakaevo

    Ce jour, 16 Février, Samedi

    Heure Température Précipitation Vent Pression Humidité
    00:00 -9°C° 0.2 mm 4 m/s 738 mmHg 90%
    01:00 -10°C° 0.2 mm 4 m/s 737 mmHg 91%
    02:00 -9°C° 0.2 mm 4 m/s 736 mmHg 91%
    03:00 -9°C° 0.2 mm 4 m/s 736 mmHg 91%
    04:00 -10°C° 0 mm 4 m/s 735 mmHg 91%
    05:00 -10°C° 0.1 mm 4 m/s 734 mmHg 91%
    06:00 -9°C° 0.1 mm 3 m/s 734 mmHg 92%
    07:00 -9°C° 0.1 mm 3 m/s 734 mmHg 92%
    08:00 -10°C° 0.2 mm 4 m/s 733 mmHg 92%
    09:00 -9°C° 0.2 mm 4 m/s 733 mmHg 92%
    10:00 -9°C° 0.2 mm 4 m/s 733 mmHg 92%
    11:00 -8°C° 0.3 mm 4 m/s 733 mmHg 92%
    12:00 -8°C° 0.3 mm 4 m/s 733 mmHg 92%
    13:00 -7°C° 0.3 mm 4 m/s 733 mmHg 92%
    14:00 -5°C° 0.3 mm 4 m/s 733 mmHg 92%
    15:00 -5°C° 0.3 mm 4 m/s 733 mmHg 93%
    16:00 -4°C° 0.3 mm 4 m/s 733 mmHg 93%
    17:00 -4°C° 0.2 mm 3 m/s 733 mmHg 93%
    18:00 -5°C° 0.2 mm 3 m/s 734 mmHg 93%
    19:00 -4°C° 0.2 mm 2 m/s 734 mmHg 93%
    20:00 -5°C° 0 mm 2 m/s 734 mmHg 94%
    21:00 -5°C° 0 mm 2 m/s 734 mmHg 95%
    22:00 -3°C° 0 mm 1 m/s 734 mmHg 96%
    23:00 -3°C° 0.1 mm 1 m/s 734 mmHg 96%

    Demain, 17 Février, Dimanche

    Heure Température Précipitation Vent Pression Humidité
    00:00 -3°C° 0.1 mm 1 m/s 735 mmHg 97%
    01:00 -3°C° 0.1 mm 1 m/s 735 mmHg 97%
    02:00 -3°C° 0.1 mm 1 m/s 735 mmHg 97%
    03:00 -3°C° 0.1 mm 1 m/s 735 mmHg 97%
    04:00 -3°C° 0.1 mm 1 m/s 735 mmHg 97%
    05:00 -3°C° 0.1 mm 1 m/s 735 mmHg 97%
    06:00 -4°C° 0.1 mm 1 m/s 734 mmHg 97%
    07:00 -4°C° 0.1 mm 1 m/s 734 mmHg 97%
    08:00 -4°C° 0.1 mm 1 m/s 734 mmHg 96%
    09:00 -4°C° 0.1 mm 1 m/s 734 mmHg 95%
    10:00 -3°C° 0.1 mm 1 m/s 733 mmHg 95%
    11:00 -5°C° 0 mm 2 m/s 733 mmHg 93%
    12:00 -4°C° 0 mm 2 m/s 733 mmHg 91%
    13:00 -4°C° 0 mm 3 m/s 732 mmHg 90%
    14:00 -4°C° 0.1 mm 3 m/s 732 mmHg 90%
    15:00 -4°C° 0.1 mm 3 m/s 731 mmHg 89%
    16:00 -4°C° 0.1 mm 3 m/s 731 mmHg 89%
    17:00 -4°C° 0.1 mm 3 m/s 730 mmHg 90%
    18:00 -4°C° 0.1 mm 3 m/s 730 mmHg 91%
    19:00 -4°C° 0.1 mm 3 m/s 729 mmHg 92%
    20:00 -4°C° 0.1 mm 4 m/s 729 mmHg 92%
    21:00 -4°C° 0.1 mm 4 m/s 728 mmHg 91%
    22:00 -5°C° 0.1 mm 4 m/s 728 mmHg 91%
    23:00 -5°C° 0.1 mm 4 m/s 727 mmHg 91%

    Après-demain, 18 Février, Lundi

    Heure Température Précipitation Vent Pression Humidité
    00:00 -5°C° 0.1 mm 4 m/s 727 mmHg 91%
    01:00 -5°C° 0.1 mm 4 m/s 726 mmHg 92%
    02:00 -5°C° 0.2 mm 3 m/s 726 mmHg 92%
    03:00 -5°C° 0.2 mm 3 m/s 725 mmHg 92%
    04:00 -5°C° 0.2 mm 3 m/s 725 mmHg 92%
    05:00 -5°C° 0.2 mm 3 m/s 724 mmHg 93%
    06:00 -5°C° 0.2 mm 2 m/s 724 mmHg 93%
    07:00 -5°C° 0.2 mm 2 m/s 724 mmHg 94%
    08:00 -5°C° 0.2 mm 2 m/s 724 mmHg 92%
    09:00 -5°C° 0.2 mm 3 m/s 724 mmHg 91%
    10:00 -5°C° 0.2 mm 3 m/s 724 mmHg 90%
    11:00 -4°C° 0.2 mm 3 m/s 724 mmHg 89%
    12:00 -3°C° 0.2 mm 2 m/s 724 mmHg 88%
    13:00 -2°C° 0.2 mm 2 m/s 724 mmHg 87%
    14:00 0°C° 0.2 mm 1 m/s 725 mmHg 88%
    15:00 0°C° 0.2 mm 1 m/s 725 mmHg 89%
    16:00 0°C° 0.2 mm 1 m/s 725 mmHg 90%
    17:00 -1°C° 0.1 mm 1 m/s 726 mmHg 91%
    18:00 -2°C° 0.1 mm 1 m/s 727 mmHg 93%
    19:00 -5°C° 0.1 mm 2 m/s 727 mmHg 94%
    20:00 -6°C° 0 mm 2 m/s 728 mmHg 94%
    21:00 -7°C° 0 mm 2 m/s 728 mmHg 94%
    22:00 -8°C° 0 mm 2 m/s 729 mmHg 94%
    23:00 -8°C° 0 mm 2 m/s 730 mmHg 95%

    19 Février, Mardi

    Heure Température Précipitation Vent Pression Humidité
    00:00 -8°C° 0 mm 2 m/s 730 mmHg 95%
    01:00 -7°C° 0 mm 2 m/s 731 mmHg 96%
    02:00 -8°C° 0.1 mm 3 m/s 732 mmHg 94%
    03:00 -8°C° 0.1 mm 4 m/s 733 mmHg 92%
    04:00 -7°C° 0.1 mm 5 m/s 734 mmHg 90%
    05:00 -10°C° 0.1 mm 5 m/s 735 mmHg 90%
    06:00 -12°C° 0.1 mm 5 m/s 735 mmHg 89%
    07:00 -14°C° 0.1 mm 5 m/s 736 mmHg 88%
    08:00 -14°C° 0 mm 5 m/s 737 mmHg 88%
    09:00 -15°C° 0 mm 5 m/s 738 mmHg 87%
    10:00 -15°C° 0 mm 4 m/s 739 mmHg 86%
    11:00 -14°C° 0 mm 4 m/s 739 mmHg 85%
    12:00 -12°C° 0 mm 4 m/s 740 mmHg 84%
    13:00 -11°C° 0 mm 4 m/s 741 mmHg 83%
    14:00 -10°C° 0 mm 3 m/s 741 mmHg 83%
    15:00 -10°C° 0 mm 3 m/s 742 mmHg 83%
    16:00 -10°C° 0 mm 2 m/s 742 mmHg 82%
    17:00 -12°C° 0 mm 2 m/s 742 mmHg 85%
    18:00 -11°C° 0 mm 1 m/s 743 mmHg 87%
    19:00 -13°C° 0 mm 1 m/s 743 mmHg 90%
    20:00 -14°C° 0 mm 2 m/s 743 mmHg 90%
    21:00 -14°C° 0 mm 2 m/s 743 mmHg 90%
    22:00 -13°C° 0 mm 2 m/s 743 mmHg 90%
    23:00 -14°C° 0.1 mm 3 m/s 743 mmHg 91%

    20 Février, Mercredi

    Heure Température Précipitation Vent Pression Humidité
    00:00 -13°C° 0.1 mm 3 m/s 743 mmHg 91%
    01:00 -14°C° 0.1 mm 4 m/s 743 mmHg 92%
    02:00 -14°C° 0.1 mm 4 m/s 743 mmHg 92%
    03:00 -14°C° 0.1 mm 4 m/s 743 mmHg 93%
    04:00 -14°C° 0.1 mm 4 m/s 743 mmHg 94%
    05:00 -14°C° 0 mm 4 m/s 743 mmHg 94%
    06:00 -13°C° 0 mm 3 m/s 743 mmHg 94%
    07:00 -13°C° 0 mm 3 m/s 743 mmHg 94%
    08:00 -12°C° 0 mm 4 m/s 743 mmHg 94%
    09:00 -11°C° 0 mm 4 m/s 743 mmHg 94%
    10:00 -11°C° 0 mm 4 m/s 744 mmHg 93%
    11:00 -10°C° 0 mm 4 m/s 743 mmHg 93%
    12:00 -9°C° 0 mm 4 m/s 743 mmHg 92%
    13:00 -8°C° 0 mm 5 m/s 743 mmHg 92%
    14:00 -8°C° 0 mm 5 m/s 743 mmHg 92%
    15:00 -8°C° 0 mm 5 m/s 742 mmHg 91%
    16:00 -8°C° 0 mm 5 m/s 742 mmHg 91%
    17:00 -10°C° 0 mm 5 m/s 742 mmHg 90%
    18:00 -10°C° 0 mm 6 m/s 742 mmHg 90%
    19:00 -10°C° 0 mm 6 m/s 742 mmHg 89%
    20:00 -11°C° 0 mm 6 m/s 741 mmHg 89%
    21:00 -11°C° 0 mm 6 m/s 741 mmHg 88%
    22:00 -11°C° 0 mm 6 m/s 741 mmHg 88%
    23:00 -12°C° 0 mm 6 m/s 741 mmHg 88%

    21 Février, Jeudi

    Heure Température Précipitation Vent Pression Humidité
    00:00 -12°C° 0 mm 6 m/s 740 mmHg 88%
    01:00 -12°C° 0 mm 6 m/s 740 mmHg 88%
    02:00 -14°C° 0 mm 6 m/s 740 mmHg 87%
    03:00 -14°C° 0 mm 6 m/s 740 mmHg 87%
    04:00 -15°C° 0 mm 6 m/s 740 mmHg 87%
    05:00 -15°C° 0.1 mm 6 m/s 740 mmHg 88%
    06:00 -14°C° 0.1 mm 6 m/s 740 mmHg 88%
    07:00 -14°C° 0.1 mm 6 m/s 740 mmHg 89%
    08:00 -14°C° 0.1 mm 6 m/s 740 mmHg 90%
    09:00 -14°C° 0.1 mm 6 m/s 740 mmHg 90%
    10:00 -14°C° 0.1 mm 6 m/s 740 mmHg 91%
    11:00 -12°C° 0.2 mm 6 m/s 740 mmHg 91%
    12:00 -12°C° 0.2 mm 6 m/s 740 mmHg 90%
    13:00 -11°C° 0.2 mm 6 m/s 740 mmHg 90%
    14:00 -11°C° 0.1 mm 6 m/s 740 mmHg 90%
    15:00 -10°C° 0.1 mm 6 m/s 740 mmHg 90%
    16:00 -10°C° 0.1 mm 6 m/s 739 mmHg 90%
    17:00 -10°C° 0.2 mm 6 m/s 739 mmHg 90%
    18:00 -10°C° 0.2 mm 6 m/s 739 mmHg 90%
    19:00 -10°C° 0.2 mm 6 m/s 739 mmHg 90%
    20:00 -9°C° 0.2 mm 6 m/s 739 mmHg 90%
    21:00 -9°C° 0.2 mm 6 m/s 739 mmHg 90%
    22:00 -8°C° 0.2 mm 5 m/s 739 mmHg 90%
    23:00 -8°C° 0.2 mm 5 m/s 739 mmHg 90%
    Voir plus